Location: Newark
(42.7589°N, 8.8294°W)
Time: 18:52:22
(UTC+00:00)

ISS - Visible Passes

Search period start: 19 January 2020 00:00
Search period end: 29 January 2020 00:00
Orbit: 415 x 421 km, 51.6° (Epoch: 20 January)

Date Brightness Start Highest point End Pass type
(mag) Time Alt. Az. Time Alt. Az. Time Alt. Az.
19 Jan -1.6 19:44:02 10° SW 19:45:24 22° SSW 19:45:24 22° SSW visible
20 Jan -2.6 18:56:29 10° SSW 18:59:24 28° SE 18:59:46 27° SE visible
21 Jan -1.8 18:09:19 10° S 18:11:35 17° SE 18:13:51 10° E visible
21 Jan -2.4 19:44:42 10° WSW 19:47:01 39° W 19:47:01 39° W visible
22 Jan -3.8 18:56:41 10° SW 19:00:02 79° SE 19:01:13 37° ENE visible
23 Jan -3.2 18:08:51 10° SW 18:12:05 46° SE 18:15:19 10° ENE visible
23 Jan -2.0 19:45:54 10° W 19:48:17 28° NW 19:48:17 28° NW visible
24 Jan -2.9 18:57:35 10° W 19:00:50 43° NNW 19:02:21 25° NNE visible
25 Jan -3.5 18:09:24 10° WSW 18:12:45 66° NNW 18:16:06 10° NE visible
25 Jan -1.5 19:47:21 10° WNW 19:49:17 20° NNW 19:49:17 20° NNW visible
26 Jan -2.1 18:58:55 10° WNW 19:01:46 25° NNW 19:03:15 18° NNE visible
27 Jan -2.4 18:10:30 10° W 18:13:34 32° NNW 18:16:39 10° NE visible
27 Jan -1.3 19:48:41 10° NW 19:50:07 16° NNW 19:50:07 16° NNW visible
28 Jan -1.8 19:00:19 10° NW 19:02:47 19° N 19:04:01 16° NNE visible
